K9BM Weather Reports


time (UTC)temp
C
wind
direction
speed
KPH
gust
KPH
rain 1hr
cm
rain 24hr
cm
rain mn
cm
humidity
%
barometer
mb
20260503055004 8 145 9.7 11.3 0.00 0.00 0.00 61 1012.0
20260503054504 9 132 6.4 11.3 0.00 0.00 0.00 59 1012.0
20260503054004 10 95 4.8 9.7 0.00 0.00 0.00 58 1012.0
20260503053505 10 94 6.4 9.7 0.00 0.00 0.00 59 1012.0
20260503053004 9 94 8.0 9.7 0.00 0.00 0.00 60 1012.0
20260503052504 9 98 4.8 9.7 0.00 0.00 0.00 60 1012.0
20260503052005 9 99 6.4 11.3 0.00 0.00 0.00 60 1012.0
20260503051504 9 99 9.7 11.3 0.00 0.00 0.00 60 1012.0
20260503051004 9 100 9.7 12.9 0.00 0.00 0.00 60 1012.0
20260503045504 9 100 11.3 14.5 0.00 0.00 0.00 61 1012.1
20260503045004 9 107 9.7 14.5 0.00 0.00 0.00 60 1012.1
20260503044504 9 119 9.7 11.3 0.00 0.00 0.00 59 1012.2
20260503044005 9 128 8.0 11.3 0.00 0.00 0.00 59 1012.1
20260503043504 9 137 8.0 11.3 0.00 0.00 0.00 60 1012.1
20260503042504 9 127 8.0 9.7 0.00 0.00 0.00 59 1012.2
20260503042004 9 97 1.6 4.8 0.00 0.00 0.00 59 1012.1
20260503041504 10 97 1.6 4.8 0.00 0.00 0.00 58 1012.0
20260503041004 10 97 3.2 4.8 0.00 0.00 0.00 58 1012.0
20260503040004 10 97 6.4 9.7 0.00 0.00 0.00 58 1011.9
20260503035504 10 97 4.8 11.3 0.00 0.00 0.00 57 1011.8
20260503035004 10 96 9.7 11.3 0.00 0.00 0.00 56 1011.7
20260503034504 10 96 9.7 11.3 0.00 0.00 0.00 55 1011.5
20260503034004 11 91 4.8 9.7 0.00 0.00 0.00 54 1011.6
20260503033505 11 91 8.0 11.3 0.00 0.00 0.00 54 1011.6
20260503032504 11 91 6.4 11.3 0.00 0.00 0.00 54 1011.4
20260503031504 11 89 9.7 11.3 0.00 0.00 0.00 53 1011.2
20260503030004 11 87 6.4 11.3 0.00 0.00 0.00 52 1011.1
20260503025505 11 87 6.4 11.3 0.00 0.00 0.00 52 1011.1
20260503025004 11 88 8.0 11.3 0.00 0.00 0.00 52 1010.9
20260503024504 12 89 8.0 12.9 0.00 0.00 0.00 51 1010.8
20260503023504 13 69 9.7 12.9 0.00 0.00 0.00 48 1010.8
20260503023004 13 69 8.0 12.9 0.00 0.00 0.00 48 1010.7
20260503021504 13 85 8.0 11.3 0.00 0.00 0.00 47 1010.5
20260503020004 14 79 11.3 14.5 0.00 0.00 0.00 46 1010.4
20260503015504 14 84 8.0 12.9 0.00 0.00 0.00 45 1010.5
20260503015004 15 76 8.0 14.5 0.00 0.00 0.00 45 1010.4
20260503014504 15 84 8.0 19.3 0.00 0.00 0.00 45 1010.4
20260503013504 15 80 12.9 19.3 0.00 0.00 0.00 42 1010.3
20260503013005 15 76 9.7 19.3 0.00 0.00 0.00 42 1010.3
20260503012004 16 56 11.3 19.3 0.00 0.00 0.00 41 1010.2
20260503011504 16 54 11.3 19.3 0.00 0.00 0.00 40 1010.1
20260503011004 16 52 11.3 22.5 0.00 0.00 0.00 40 1010.0
20260503010004 16 58 16.1 24.1 0.00 0.00 0.00 39 1010.0
20260503005504 16 56 17.7 27.4 0.00 0.00 0.00 38 1010.0
20260503005004 17 53 19.3 27.4 0.00 0.00 0.00 38 1009.9
20260503004504 17 52 12.9 20.9 0.00 0.00 0.00 38 1009.9
20260503004004 17 50 14.5 20.9 0.00 0.00 0.00 37 1010.0
20260503003504 17 31 11.3 20.9 0.00 0.00 0.00 36 1010.1
20260503003005 17 32 11.3 19.3 0.00 0.00 0.00 36 1010.0
20260503002504 17 30 9.7 19.3 0.00 0.00 0.00 37 1010.0
20260503002004 17 48 9.7 19.3 0.00 0.00 0.00 35 1009.9
20260503001504 17 46 11.3 20.9 0.00 0.00 0.00 35 1009.9
20260503001004 18 34 11.3 20.9 0.00 0.00 0.00 35 1009.9
20260503000004 18 25 14.5 22.5 0.00 0.00 0.00 35 1009.9
20260502235504 18 27 14.5 24.1 0.00 0.00 0.00 35 1009.9
20260502235004 18 37 17.7 24.1 0.00 0.00 0.00 35 1009.9
20260502233505 18 36 14.5 24.1 0.00 0.00 0.00 36 1009.8
20260502233005 18 34 17.7 32.2 0.00 0.00 0.00 34 1009.8
20260502232504 18 29 19.3 32.2 0.00 0.00 0.00 34 1009.8
20260502232005 18 53 14.5 29.0 0.00 0.00 0.00 32 1009.8
20260502231506 18 83 14.5 20.9 0.00 0.00 0.00 32 1009.7
20260502231006 18 88 14.5 20.9 0.00 0.00 0.00 31 1009.6
20260502230005 19 88 14.5 20.9 0.00 0.00 0.00 31 1009.7
20260502225505 19 84 14.5 20.9 0.00 0.00 0.00 32 1009.8
20260502225005 19 87 12.9 32.2 0.00 0.00 0.00 32 1009.8
20260502224505 19 79 17.7 32.2 0.00 0.00 0.00 30 1009.9
20260502224005 19 86 19.3 32.2 0.00 0.00 0.00 29 1010.0
20260502223505 20 8 16.1 27.4 0.00 0.00 0.00 28 1010.0
20260502223005 20 319 11.3 19.3 0.00 0.00 0.00 21 1010.0
20260502222505 20 324 14.5 19.3 0.00 0.00 0.00 21 1010.0
20260502222005 20 310 11.3 22.5 0.00 0.00 0.00 23 1010.0
20260502221505 20 304 11.3 22.5 0.00 0.00 0.00 23 1010.0
20260502221005 20 299 8.0 19.3 0.00 0.00 0.00 22 1010.1
20260502215505 20 294 11.3 22.5 0.00 0.00 0.00 23 1010.3
20260502214505 20 298 14.5 20.9 0.00 0.00 0.00 22 1010.4
20260502213505 20 314 12.9 20.9 0.00 0.00 0.00 22 1010.6
20260502213005 20 301 11.3 20.9 0.00 0.00 0.00 23 1010.6
20260502212505 20 293 11.3 19.3 0.00 0.00 0.00 22 1010.6
20260502212005 20 301 9.7 19.3 0.00 0.00 0.00 21 1010.6
20260502211505 20 284 11.3 20.9 0.00 0.00 0.00 22 1010.7
20260502211005 20 290 11.3 20.9 0.00 0.00 0.00 21 1010.7
20260502210005 20 300 9.7 20.9 0.00 0.00 0.00 22 1010.8
20260502205505 20 267 12.9 24.1 0.00 0.00 0.00 22 1010.8
20260502205005 20 287 14.5 27.4 0.00 0.00 0.00 21 1010.9
20260502204505 20 287 19.3 27.4 0.00 0.00 0.00 19 1010.9
20260502204005 20 290 17.7 24.1 0.00 0.00 0.00 20 1010.9
20260502203505 20 305 16.1 27.4 0.00 0.00 0.00 20 1010.9
20260502203005 20 285 17.7 27.4 0.00 0.00 0.00 20 1011.0
20260502202005 20 284 14.5 32.2 0.00 0.00 0.00 21 1011.1
20260502201505 20 271 16.1 32.2 0.00 0.00 0.00 20 1011.1
20260502201005 20 280 19.3 27.4 0.00 0.00 0.00 19 1011.3
20260502195505 20 285 16.1 27.4 0.00 0.00 0.00 21 1011.4
20260502195005 20 273 16.1 29.0 0.00 0.00 0.00 20 1011.5
20260502194505 20 242 19.3 29.0 0.00 0.00 0.00 19 1011.5
20260502194005 20 244 16.1 25.7 0.00 0.00 0.00 20 1011.6
20260502193504 20 247 14.5 20.9 0.00 0.00 0.00 21 1011.6
20260502193005 21 277 9.7 32.2 0.00 0.00 0.00 19 1011.8
20260502192005 20 252 12.9 24.1 0.00 0.00 0.00 19 1012.0
20260502191505 20 292 12.9 24.1 0.00 0.00 0.00 20 1012.0
20260502190005 20 329 11.3 25.7 0.00 0.00 0.00 22 1012.2
20260502185505 20 330 14.5 25.7 0.00 0.00 0.00 20 1012.2
20260502185005 20 309 9.7 25.7 0.00 0.00 0.00 23 1012.4
20260502184505 20 332 11.3 25.7 0.00 0.00 0.00 22 1012.5
20260502184006 20 338 8.0 22.5 0.00 0.00 0.00 22 1012.5
20260502182505 19 0 4.8 16.1 0.00 0.00 0.00 24 1012.6
20260502182005 18 36 3.2 20.9 0.00 0.00 0.00 26 1012.7
20260502181005 18 6 8.0 20.9 0.00 0.00 0.00 26 1012.8
20260502164005 17 285 4.8 12.9 0.00 0.00 0.00 28 1013.5
20260502163505 16 328 6.4 16.1 0.00 0.00 0.00 29 1013.6
20260502163005 16 1 6.4 16.1 0.00 0.00 0.00 30 1013.7
20260502162505 16 1 9.7 14.5 0.00 0.00 0.00 31 1013.7
20260502162005 16 5 8.0 14.5 0.00 0.00 0.00 31 1013.8
20260502161504 15 358 4.8 19.3 0.00 0.00 0.00 30 1013.8
20260502161005 15 16 8.0 19.3 0.00 0.00 0.00 29 1013.7
20260502152005 14 324 14.5 20.9 0.00 0.00 0.00 32 1014.1
20260502151505 13 331 14.5 20.9 0.00 0.00 0.00 33 1014.1
20260502151005 13 325 16.1 19.3 0.00 0.00 0.00 34 1014.1
20260502123505 7 231 9.7 25.7 0.00 0.00 0.00 41 1013.6
20260502123004 6 222 6.4 14.5 0.00 0.00 0.00 44 1013.6
20260502122505 6 231 9.7 14.5 0.00 0.00 0.00 44 1013.6
20260502122005 6 230 8.0 9.7 0.00 0.00 0.00 43 1013.6
20260502121005 7 208 4.8 19.3 0.00 0.00 0.00 39 1013.6
20260502115505 8 256 12.9 19.3 0.00 0.00 0.00 38 1013.5
20260502114504 7 247 14.5 19.3 0.00 0.00 0.00 40 1013.5
20260502114005 7 239 11.3 16.1 0.00 0.00 0.00 40 1013.4
20260502113504 7 241 11.3 16.1 0.00 0.00 0.00 40 1013.4
20260502113005 7 230 11.3 16.1 0.00 0.00 0.00 40 1013.5
20260502112505 7 242 11.3 19.3 0.00 0.00 0.00 39 1013.4
20260502112004 7 239 12.9 19.3 0.00 0.00 0.00 39 1013.4
20260502111505 8 236 11.3 19.3 0.00 0.00 0.00 38 1013.5
20260502110005 8 248 12.9 19.3 0.00 0.00 0.00 37 1013.5
20260502105505 8 235 11.3 19.3 0.00 0.00 0.00 37 1013.5
20260502105005 8 237 12.9 19.3 0.00 0.00 0.00 38 1013.5
20260502104504 7 232 11.3 16.1 0.00 0.00 0.00 38 1013.4
20260502104004 7 233 9.7 16.1 0.00 0.00 0.00 39 1013.4
20260502103505 7 228 9.7 14.5 0.00 0.00 0.00 40 1013.4
20260502103005 7 238 11.3 14.5 0.00 0.00 0.00 40 1013.4
20260502102004 7 236 9.7 12.9 0.00 0.00 0.00 39 1013.3
20260502101504 7 241 9.7 14.5 0.00 0.00 0.00 38 1013.3
20260502101005 7 237 9.7 14.5 0.00 0.00 0.00 38 1013.4
20260502091505 8 232 14.5 19.3 0.00 0.00 0.00 35 1013.3
20260502091005 8 234 11.3 19.3 0.00 0.00 0.00 35 1013.3
20260502071504 9 231 11.3 19.3 0.00 0.00 0.00 32 1014.0
20260502071004 10 233 14.5 19.3 0.00 0.00 0.00 31 1013.9
20260502070004 10 229 14.5 22.5 0.00 0.00 0.00 31 1014.0
20260502065504 10 229 14.5 22.5 0.00 0.00 0.00 32 1014.0
20260502065004 9 232 14.5 19.3 0.00 0.00 0.00 32 1014.0
20260502064504 9 225 11.3 19.3 0.00 0.00 0.00 32 1014.0
20260502064004 9 229 11.3 19.3 0.00 0.00 0.00 32 1014.0
20260502063505 9 223 12.9 19.3 0.00 0.00 0.00 32 1013.9
20260502063004 9 207 11.3 20.9 0.00 0.00 0.00 32 1013.9